Location: Unspecified
(0.0000°N, 0.0000°E)
Time: 15:13:37
(UTC+00:00)

HULIANWANG DIGUI-85 - Visible Passes

Search period start: 14 November 2025 00:00
Search period end: 24 November 2025 00:00
Orbit: 1138 x 1140 km, 86.5° (Epoch: 12 November)

Date Brightness Start Highest point End Pass type
(mag) Time Alt. Az. Time Alt. Az. Time Alt. Az.
14 Nov ? 03:16:06 10° SSE 03:22:07 31° E 03:28:05 10° NNE visible
14 Nov ? 05:04:38 10° SW 05:10:10 25° W 05:15:42 10° NW visible
15 Nov ? 02:44:32 10° ESE 02:48:26 16° E 02:52:19 10° NE visible
15 Nov ? 04:29:49 10° SSW 04:36:30 48° W 04:43:10 10° NNW visible
16 Nov ? 03:55:47 10° S 04:02:50 87° W 04:09:51 10° N visible
17 Nov ? 03:22:24 10° SSE 03:29:10 51° E 03:35:53 10° NNE visible
17 Nov ? 05:13:43 10° WSW 05:17:13 14° W 05:20:42 10° WNW visible
18 Nov ? 02:49:45 10° SE 02:55:29 27° E 03:01:11 10° NE visible
18 Nov ? 04:37:43 10° SSW 04:43:33 29° W 04:49:23 10° NW visible
19 Nov ? 02:18:39 10° ESE 02:21:49 13° E 02:24:58 10° ENE visible
19 Nov ? 04:03:05 10° SSW 04:09:53 54° W 04:14:28 21° NNW visible
20 Nov ? 03:29:10 10° S 03:36:13 84° E 03:38:57 41° N visible
21 Nov ? 02:55:55 10° SSE 03:02:33 45° E 03:03:52 41° ENE visible
21 Nov ? 04:46:27 10° SW 04:50:35 17° W 04:51:56 16° WNW visible
22 Nov ? 02:23:27 10° SE 02:28:52 24° E 02:29:01 24° E visible
22 Nov ? 04:10:51 10° SSW 04:16:55 32° W 04:17:06 32° W visible
23 Nov ? 01:53:06 10° ESE 01:54:21 11° E 01:54:21 11° E visible
23 Nov ? 03:36:22 10° S 03:42:27 57° WSW 03:42:27 57° WSW visible
